Regional Weather Roundup
Issued by NWS State College, PA

Home | Current Version | Previous Version | Text Only | Print | Product List | Glossary Off
Versions: 1 2 3 4 5 6 7 8 9 10 11 12 13 14 15 16 17 18 19 20 21 22 23 24 25 26 27 28 29 30 31 32 33 34 35 36 37 38 39 40 41 42 43 44 45 46 47 48 49 50

000
ASUS41 KCTP 220510
RWRCTP

REGIONAL WEATHER ROUNDUP
NATIONAL WEATHER SERVICE STATE COLLEGE PA
1200 AM EST WED FEB 22 2017

Note: "fair" indicates few or no clouds below 12,000 feet with no
significant weather and/or obstructions to visibility.

* = STATION THAT DOES NOT REPORT PRECIPITATION /E.G. RAIN...SNOW...ETC/
    THUNDER OR FOG.

PAZ002>004-007>009-013>016-020>023-029>032-220600-
WESTERN PENNSYLVANIA

CITY           SKY/WX    TMP DP  RH WIND       PRES   REMARKS
ERIE           CLOUDY    50  44  80 S3        29.94F
MEADVILLE      MOCLDY    53  41  63 CALM      29.94F
FRANKLIN*      CLOUDY    48  36  61 CALM      29.97F
NEW CASTLE     CLOUDY    52  45  77 CALM      29.96S
BEAVER COUNTY  NOT AVBL
BUTLER*        CLOUDY    54  43  66 CALM      29.97F
PITTSBURGH INT CLOUDY    57  44  62 CALM      29.96R
PITTSBURGH     CLOUDY    56  36  47 S7        29.95F
INDIANA*       CLOUDY    54  37  54 CALM      29.99F
LATROBE        CLOUDY    50  39  66 CALM      29.97F
WASHINGTON CO* CLOUDY    52  43  71 CALM      29.98S
$$

PAZ004>006-010>012-017>019-024>028-033>037-041-042-045-046-049>053-220600-
CENTRAL PENNSYLVANIA

CITY           SKY/WX    TMP DP  RH WIND       PRES   REMARKS
BRADFORD       CLOUDY    43  32  65 SE6       29.97F
DUBOIS         MOCLDY    46  31  55 SE5       29.96F
CLEARFIELD       N/A    N/A N/A N/A MISG      29.99F
JOHNSTOWN      CLOUDY    48  34  58 S10       29.98F
ALTOONA        CLOUDY    47  34  60 S5        30.01F
STATE COLLEGE  CLOUDY    48  32  54 SW6       30.01F
WILLIAMSPORT   NOT AVBL
SELINSGROVE    NOT AVBL
FT INDIANTOWN  CLOUDY    41  36  84 CALM      30.09F
CAPITAL CITY   NOT AVBL
HARRISBURG     CLOUDY    44  34  67 E5        30.09F
YORK           NOT AVBL
$$

PAZ038>040-043-044-047-048-054-055-060>062-067>071-220600-
EASTERN PENNSYLVANIA

CITY           SKY/WX    TMP DP  RH WIND       PRES   REMARKS
SCRANTON       NOT AVBL
MOUNT POCONO   NOT AVBL
ALLENTOWN      NOT AVBL
QUAKERTOWN*    CLOUDY    41  32  70 SW3       30.11F
READING        NOT AVBL
LANCASTER      NOT AVBL
COATESVILLE    CLOUDY    39  36  87 S5        30.12S
POTTSTOWN      NOT AVBL
BLUE BELL      PTCLDY    41  34  75 CALM      30.12S
DOYLESTOWN     NOT AVBL
WILLOW GROVE   NOT AVBL
NORTH PHILA    NOT AVBL
PHILADELPHIA   CLOUDY    42  34  73 CALM      30.14F
$$




USA.gov is the U.S. government's official web portal to all federal, state and local government web resources and services.